| time (UTC) | temp F | wind direction | speed MPH | gust MPH | rain 1hr in | rain 24hr in | rain mn in | humidity % | barometer mb |
| 20260905214153 | 73 | 118 | 5.0 | 5.0 | 0.00 | 0.00 | 0.00 | 51 | 1016.8 |
| 20260905213648 | 72 | 195 | 1.0 | 4.0 | 0.00 | 0.00 | 0.00 | 50 | 1016.8 |
| 20260905213144 | 73 | 109 | 0.0 | 3.0 | 0.00 | 0.00 | 0.00 | 51 | 1016.8 |
| 20260905212639 | 70 | 298 | 3.0 | 7.0 | 0.00 | 0.00 | 0.00 | 52 | 1016.8 |
| 20260905212138 | 70 | 327 | 3.0 | 5.0 | 0.00 | 0.00 | 0.00 | 51 | 1017.1 |
| 20260905211633 | 70 | 262 | 6.0 | 7.0 | 0.00 | 0.00 | 0.00 | 52 | 1016.9 |
| 20260905211128 | 72 | 11 | 0.0 | 2.0 | 0.00 | 0.00 | 0.00 | 51 | 1017.0 |
| 20260905210625 | 71 | 287 | 2.0 | 3.0 | 0.00 | 0.00 | 0.00 | 53 | 1017.2 |
| 20260905210119 | 70 | 282 | 3.0 | 4.0 | 0.00 | 0.00 | 0.00 | 53 | 1017.1 |
| 20260905205619 | 71 | 121 | 3.0 | 6.0 | 0.00 | 0.00 | 0.00 | 55 | 1017.2 |
| 20260905205118 | 70 | 307 | 2.0 | 5.0 | 0.00 | 0.00 | 0.00 | 53 | 1017.4 |
| 20260905204618 | 71 | 322 | 3.0 | 5.0 | 0.00 | 0.00 | 0.00 | 52 | 1017.6 |
| 20260905204114 | 69 | 7 | 4.0 | 4.0 | 0.00 | 0.00 | 0.00 | 55 | 1017.7 |
| 20260905203613 | 68 | 266 | 0.0 | 5.0 | 0.00 | 0.00 | 0.00 | 56 | 1017.6 |
| 20260905203109 | 69 | 236 | 2.0 | 5.0 | 0.00 | 0.00 | 0.00 | 56 | 1017.7 |
| 20260905202604 | 69 | 291 | 4.0 | 6.0 | 0.00 | 0.00 | 0.00 | 57 | 1017.7 |
| 20260905202059 | 69 | 315 | 2.0 | 4.0 | 0.00 | 0.00 | 0.00 | 56 | 1017.7 |
| 20260905201555 | 68 | 357 | 3.0 | 9.0 | 0.00 | 0.00 | 0.00 | 59 | 1017.7 |
| 20260905201054 | 68 | 105 | 3.0 | 4.0 | 0.00 | 0.00 | 0.00 | 60 | 1017.8 |
| 20260905200550 | 68 | 353 | 1.0 | 5.0 | 0.00 | 0.00 | 0.00 | 61 | 1017.9 |
| 20260905200050 | 66 | 257 | 2.0 | 4.0 | 0.00 | 0.00 | 0.00 | 60 | 1017.9 |
| 20260905195544 | 66 | 297 | 1.0 | 3.0 | 0.00 | 0.00 | 0.00 | 60 | 1018.2 |
| 20260905195040 | 66 | 304 | 2.0 | 2.0 | 0.00 | 0.00 | 0.00 | 61 | 1018.2 |
| 20260905194539 | 66 | 66 | 2.0 | 3.0 | 0.00 | 0.00 | 0.00 | 64 | 1018.1 |
| 20260905194038 | 66 | 90 | 1.0 | 3.0 | 0.00 | 0.00 | 0.00 | 62 | 1018.0 |
| 20260905193533 | 65 | 169 | 0.0 | 4.0 | 0.00 | 0.00 | 0.00 | 62 | 1017.8 |
| 20260905193029 | 66 | 279 | 0.0 | 2.0 | 0.00 | 0.00 | 0.00 | 64 | 1018.0 |
| 20260905192524 | 65 | 6 | 1.0 | 3.0 | 0.00 | 0.00 | 0.00 | 66 | 1018.0 |
| 20260905192020 | 65 | 255 | 0.0 | 3.0 | 0.00 | 0.00 | 0.00 | 65 | 1018.2 |
| 20260905191519 | 65 | 0 | 0.0 | 3.0 | 0.00 | 0.00 | 0.00 | 66 | 1018.1 |
| 20260905191018 | 64 | 12 | 2.0 | 3.0 | 0.00 | 0.00 | 0.00 | 68 | 1018.2 |
| 20260905190516 | 64 | 332 | 2.0 | 3.0 | 0.00 | 0.00 | 0.00 | 67 | 1018.2 |
| 20260905190010 | 64 | 263 | 3.0 | 4.0 | 0.00 | 0.00 | 0.00 | 66 | 1018.1 |
| 20260905185504 | 63 | 267 | 4.0 | 5.0 | 0.00 | 0.00 | 0.00 | 67 | 1018.1 |
| 20260905185003 | 63 | 291 | 1.0 | 3.0 | 0.00 | 0.00 | 0.00 | 70 | 1018.5 |
| 20260905184459 | 63 | 300 | 3.0 | 5.0 | 0.00 | 0.00 | 0.00 | 69 | 1018.7 |
| 20260905183957 | 62 | 241 | 2.0 | 5.0 | 0.00 | 0.00 | 0.00 | 70 | 1018.5 |
| 20260905183457 | 62 | 248 | 2.0 | 6.0 | 0.00 | 0.00 | 0.00 | 73 | 1018.7 |
| 20260905182951 | 62 | 273 | 4.0 | 5.0 | 0.00 | 0.00 | 0.00 | 73 | 1018.7 |
| 20260905182451 | 63 | 275 | 2.0 | 4.0 | 0.00 | 0.00 | 0.00 | 72 | 1018.8 |
| 20260905181946 | 61 | 209 | 2.0 | 4.0 | 0.00 | 0.00 | 0.00 | 74 | 1018.9 |
| 20260905181441 | 61 | 189 | 3.0 | 3.0 | 0.00 | 0.00 | 0.00 | 74 | 1018.9 |
| 20260905180940 | 61 | 331 | 1.0 | 3.0 | 0.00 | 0.00 | 0.00 | 76 | 1018.9 |
| 20260905180435 | 60 | 264 | 1.0 | 3.0 | 0.00 | 0.00 | 0.00 | 77 | 1019.0 |
| 20260905175930 | 60 | 280 | 2.0 | 3.0 | 0.00 | 0.00 | 0.00 | 75 | 1019.1 |
| 20260905175429 | 60 | 251 | 3.0 | 5.0 | 0.00 | 0.00 | 0.00 | 76 | 1019.3 |
| 20260905174925 | 60 | 211 | 3.0 | 5.0 | 0.00 | 0.00 | 0.00 | 77 | 1019.1 |
| 20260905174421 | 60 | 278 | 2.0 | 5.0 | 0.00 | 0.00 | 0.00 | 76 | 1019.1 |
| 20260905173916 | 59 | 289 | 1.0 | 5.0 | 0.00 | 0.00 | 0.00 | 78 | 1019.1 |
| 20260905173412 | 59 | 255 | 3.0 | 6.0 | 0.00 | 0.00 | 0.00 | 77 | 1019.1 |
| 20260905172907 | 59 | 245 | 2.0 | 7.0 | 0.00 | 0.00 | 0.00 | 79 | 1019.5 |
| 20260905172404 | 59 | 326 | 5.0 | 5.0 | 0.00 | 0.00 | 0.00 | 79 | 1019.0 |
| 20260905171901 | 58 | 336 | 2.0 | 5.0 | 0.00 | 0.00 | 0.00 | 80 | 1019.3 |
| 20260905171357 | 58 | 83 | 0.0 | 5.0 | 0.00 | 0.00 | 0.00 | 81 | 1019.6 |
| 20260905170854 | 57 | 206 | 3.0 | 3.0 | 0.00 | 0.00 | 0.00 | 81 | 1019.2 |
| 20260905170349 | 57 | 322 | 6.0 | 6.0 | 0.00 | 0.00 | 0.00 | 82 | 1019.2 |
| 20260905165848 | 57 | 328 | 2.0 | 4.0 | 0.00 | 0.00 | 0.00 | 82 | 1019.7 |
| 20260905165343 | 56 | 354 | 1.0 | 4.0 | 0.00 | 0.00 | 0.00 | 83 | 1019.3 |
| 20260905164838 | 55 | 306 | 1.0 | 2.0 | 0.00 | 0.00 | 0.00 | 84 | 1019.3 |
| 20260905164333 | 55 | 277 | 1.0 | 2.0 | 0.00 | 0.00 | 0.00 | 85 | 1019.6 |
| 20260905163829 | 55 | 180 | 2.0 | 3.0 | 0.00 | 0.00 | 0.00 | 85 | 1019.5 |
| 20260905163325 | 55 | 286 | 1.0 | 5.0 | 0.00 | 0.00 | 0.00 | 85 | 1019.7 |
| 20260905162821 | 56 | 304 | 2.0 | 2.0 | 0.00 | 0.00 | 0.00 | 86 | 1019.6 |
| 20260905162320 | 55 | 299 | 3.0 | 4.0 | 0.00 | 0.00 | 0.00 | 85 | 1019.6 |
| 20260905161815 | 54 | 328 | 3.0 | 5.0 | 0.00 | 0.00 | 0.00 | 86 | 1019.7 |
| 20260905161314 | 55 | 246 | 2.0 | 3.0 | 0.00 | 0.00 | 0.00 | 88 | 1019.6 |
| 20260905160812 | 53 | 246 | 0.0 | 2.0 | 0.00 | 0.00 | 0.00 | 90 | 1019.5 |
| 20260905160307 | 53 | 262 | 0.0 | 2.0 | 0.00 | 0.00 | 0.00 | 90 | 1019.8 |
| 20260905155802 | 52 | 172 | 0.0 | 3.0 | 0.00 | 0.00 | 0.00 | 91 | 1019.6 |
| 20260905155301 | 52 | 253 | 3.0 | 3.0 | 0.00 | 0.00 | 0.00 | 91 | 1019.5 |
| 20260905154755 | 52 | 297 | 0.0 | 1.0 | 0.00 | 0.00 | 0.00 | 92 | 1019.7 |
| 20260905154251 | 51 | 24 | 2.0 | 3.0 | 0.00 | 0.00 | 0.00 | 92 | 1019.6 |
| 20260905153746 | 51 | 294 | 0.0 | 3.0 | 0.00 | 0.00 | 0.00 | 93 | 1019.6 |
| 20260905153242 | 51 | 45 | 2.0 | 3.0 | 0.00 | 0.00 | 0.00 | 94 | 1019.5 |
| 20260905152736 | 51 | 0 | 1.0 | 3.0 | 0.00 | 0.00 | 0.00 | 94 | 1019.7 |
| 20260905152231 | 51 | 311 | 0.0 | 2.0 | 0.00 | 0.00 | 0.00 | 95 | 1019.6 |
| 20260905151731 | 51 | 254 | 0.0 | 2.0 | 0.00 | 0.00 | 0.00 | 95 | 1019.8 |
| 20260905151227 | 51 | 36 | 3.0 | 3.0 | 0.00 | 0.00 | 0.00 | 95 | 1019.5 |
| 20260905150726 | 51 | 331 | 0.0 | 2.0 | 0.00 | 0.00 | 0.00 | 95 | 1019.5 |
| 20260905150226 | 51 | 11 | 0.0 | 3.0 | 0.00 | 0.00 | 0.00 | 95 | 1019.3 |
| 20260905145724 | 51 | 258 | 1.0 | 3.0 | 0.00 | 0.00 | 0.00 | 95 | 1019.1 |
| 20260905145219 | 51 | 14 | 0.0 | 2.0 | 0.00 | 0.00 | 0.00 | 95 | 1019.7 |
| 20260905144717 | 51 | 188 | 0.0 | 1.0 | 0.00 | 0.00 | 0.00 | 95 | 1019.5 |
| 20260905144212 | 51 | 294 | 0.0 | 2.0 | 0.00 | 0.00 | 0.00 | 94 | 1019.5 |
| 20260905143711 | 51 | 21 | 2.0 | 3.0 | 0.00 | 0.00 | 0.00 | 94 | 1019.6 |
| 20260905143206 | 51 | 240 | 0.0 | 2.0 | 0.00 | 0.00 | 0.00 | 94 | 1019.3 |
| 20260905142704 | 51 | 294 | 1.0 | 3.0 | 0.00 | 0.00 | 0.00 | 94 | 1019.0 |
| 20260905142159 | 51 | 12 | 0.0 | 2.0 | 0.00 | 0.00 | 0.00 | 94 | 1019.3 |
| 20260905141654 | 51 | 248 | 0.0 | 2.0 | 0.00 | 0.00 | 0.00 | 94 | 1019.1 |
| 20260905141150 | 51 | 259 | 5.0 | 5.0 | 0.00 | 0.00 | 0.00 | 94 | 1019.5 |
| 20260905140645 | 51 | 239 | 2.0 | 2.0 | 0.00 | 0.00 | 0.00 | 94 | 1019.0 |
| 20260905140145 | 51 | 225 | 3.0 | 3.0 | 0.00 | 0.00 | 0.00 | 93 | 1018.9 |
| 20260905135640 | 52 | 0 | 3.0 | 3.0 | 0.00 | 0.00 | 0.00 | 92 | 1018.9 |
| 20260905135135 | 51 | 49 | 2.0 | 4.0 | 0.00 | 0.00 | 0.00 | 92 | 1018.1 |
| 20260905134624 | 51 | 98 | 3.0 | 4.0 | 0.00 | 0.00 | 0.00 | 92 | 1018.7 |
| 20260905134123 | 51 | 330 | 3.0 | 3.0 | 0.00 | 0.00 | 0.00 | 94 | 1019.3 |
| 20260905133619 | 50 | 57 | 1.0 | 4.0 | 0.00 | 0.00 | 0.00 | 95 | 1018.7 |
| 20260905133119 | 50 | 14 | 0.0 | 1.0 | 0.00 | 0.00 | 0.00 | 95 | 1018.9 |
| 20260905132618 | 50 | 98 | 0.0 | 1.0 | 0.00 | 0.00 | 0.00 | 95 | 1018.5 |
| 20260905132113 | 50 | 90 | 0.0 | 2.0 | 0.00 | 0.00 | 0.00 | 95 | 1018.5 |
| 20260905131608 | 50 | 127 | 3.0 | 4.0 | 0.00 | 0.00 | 0.00 | 95 | 1018.1 |
| 20260905131103 | 50 | 45 | 2.0 | 3.0 | 0.00 | 0.00 | 0.00 | 94 | 1018.2 |
| 20260905130603 | 51 | 45 | 2.0 | 3.0 | 0.00 | 0.00 | 0.00 | 94 | 1018.3 |
| 20260905130058 | 51 | 14 | 2.0 | 4.0 | 0.00 | 0.00 | 0.00 | 93 | 1018.3 |
| 20260905125557 | 51 | 204 | 0.0 | 2.0 | 0.00 | 0.00 | 0.00 | 94 | 1018.3 |
| 20260905125053 | 51 | 219 | 2.0 | 4.0 | 0.00 | 0.00 | 0.00 | 95 | 1018.1 |
| 20260905124549 | 51 | 266 | 2.0 | 4.0 | 0.00 | 0.00 | 0.00 | 94 | 1018.1 |
| 20260905124045 | 51 | 270 | 2.0 | 3.0 | 0.00 | 0.00 | 0.00 | 94 | 1017.9 |
| 20260905123540 | 51 | 341 | 2.0 | 2.0 | 0.00 | 0.00 | 0.00 | 93 | 1018.0 |
| 20260905123037 | 51 | 11 | 3.0 | 4.0 | 0.00 | 0.00 | 0.00 | 93 | 1017.8 |
| 20260905122536 | 51 | 185 | 2.0 | 5.0 | 0.00 | 0.00 | 0.00 | 93 | 1017.7 |
| 20260905122031 | 51 | 90 | 0.0 | 3.0 | 0.00 | 0.00 | 0.00 | 94 | 1017.7 |
| 20260905121526 | 51 | 204 | 2.0 | 2.0 | 0.00 | 0.00 | 0.00 | 94 | 1018.0 |
| 20260905121021 | 51 | 255 | 1.0 | 3.0 | 0.00 | 0.00 | 0.00 | 94 | 1018.3 |
| 20260905120515 | 51 | 75 | 0.0 | 1.0 | 0.00 | 0.00 | 0.00 | 93 | 1018.2 |
| 20260905120010 | 51 | 54 | 1.0 | 3.0 | 0.00 | 0.00 | 0.00 | 93 | 1018.0 |
| 20260905115509 | 51 | 60 | 2.0 | 3.0 | 0.00 | 0.00 | 0.00 | 93 | 1017.8 |
| 20260905115004 | 51 | 106 | 1.0 | 6.0 | 0.00 | 0.00 | 0.00 | 94 | 1017.8 |
| 20260905114504 | 51 | 106 | 5.0 | 6.0 | 0.00 | 0.00 | 0.00 | 95 | 1017.6 |
| 20260905114003 | 51 | 28 | 2.0 | 3.0 | 0.00 | 0.00 | 0.00 | 95 | 1017.9 |
| 20260905113458 | 51 | 83 | 0.0 | 2.0 | 0.00 | 0.00 | 0.00 | 95 | 1018.1 |
| 20260905112953 | 51 | 103 | 2.0 | 2.0 | 0.00 | 0.00 | 0.00 | 95 | 1018.2 |
| 20260905112448 | 51 | 26 | 0.0 | 3.0 | 0.00 | 0.00 | 0.00 | 95 | 1017.9 |
| 20260905111943 | 51 | 106 | 0.0 | 2.0 | 0.00 | 0.00 | 0.00 | 95 | 1017.6 |
| 20260905111438 | 51 | 292 | 2.0 | 2.0 | 0.00 | 0.00 | 0.00 | 95 | 1017.7 |
| 20260905110937 | 51 | 29 | 2.0 | 3.0 | 0.00 | 0.00 | 0.00 | 95 | 1017.4 |
| 20260905110431 | 51 | 38 | 2.0 | 3.0 | 0.00 | 0.00 | 0.00 | 95 | 1017.8 |
| 20260905105931 | 51 | 96 | 1.0 | 2.0 | 0.00 | 0.00 | 0.00 | 94 | 1018.3 |
| 20260905105426 | 51 | 84 | 2.0 | 3.0 | 0.00 | 0.00 | 0.00 | 94 | 1017.8 |
| 20260905104925 | 51 | 109 | 0.0 | 3.0 | 0.00 | 0.00 | 0.00 | 94 | 1018.2 |
| 20260905104421 | 51 | 227 | 3.0 | 6.0 | 0.00 | 0.00 | 0.00 | 94 | 1017.9 |
| 20260905103916 | 51 | 264 | 3.0 | 8.0 | 0.00 | 0.00 | 0.00 | 95 | 1017.4 |
| 20260905103412 | 51 | 209 | 4.0 | 5.0 | 0.00 | 0.00 | 0.00 | 95 | 1017.0 |
| 20260905102907 | 51 | 25 | 4.0 | 9.0 | 0.00 | 0.00 | 0.00 | 95 | 1016.7 |
| 20260905102404 | 51 | 67 | 2.0 | 5.0 | 0.00 | 0.00 | 0.00 | 95 | 1017.4 |
| 20260905101858 | 51 | 109 | 0.0 | 1.0 | 0.00 | 0.00 | 0.00 | 95 | 1017.7 |
| 20260905101356 | 51 | 61 | 2.0 | 3.0 | 0.00 | 0.00 | 0.00 | 95 | 1018.2 |
| 20260905100851 | 51 | 98 | 2.0 | 4.0 | 0.00 | 0.00 | 0.00 | 95 | 1018.0 |
| 20260905100347 | 51 | 270 | 2.0 | 6.0 | 0.00 | 0.00 | 0.00 | 95 | 1018.3 |
| 20260905095846 | 51 | 285 | 5.0 | 6.0 | 0.00 | 0.00 | 0.00 | 95 | 1018.5 |
| 20260905095341 | 51 | 226 | 4.0 | 4.0 | 0.00 | 0.00 | 0.00 | 95 | 1018.1 |
| 20260905094836 | 50 | 105 | 5.0 | 6.0 | 0.00 | 0.00 | 0.00 | 95 | 1017.2 |
| 20260905094331 | 51 | 59 | 3.0 | 4.0 | 0.00 | 0.00 | 0.00 | 95 | 1017.4 |
| 20260905093830 | 51 | 57 | 2.0 | 3.0 | 0.00 | 0.00 | 0.00 | 95 | 1018.0 |
| 20260905093326 | 51 | 257 | 2.0 | 3.0 | 0.00 | 0.00 | 0.00 | 95 | 1017.9 |
| 20260905092822 | 51 | 197 | 2.0 | 3.0 | 0.00 | 0.00 | 0.00 | 95 | 1018.1 |
| 20260905092321 | 51 | 192 | 3.0 | 5.0 | 0.00 | 0.00 | 0.00 | 95 | 1018.0 |
| 20260905091817 | 51 | 68 | 3.0 | 3.0 | 0.00 | 0.00 | 0.00 | 95 | 1017.2 |
| 20260905091316 | 51 | 185 | 0.0 | 2.0 | 0.00 | 0.00 | 0.00 | 94 | 1017.5 |
| 20260905090814 | 51 | 68 | 2.0 | 3.0 | 0.00 | 0.00 | 0.00 | 94 | 1017.4 |
| 20260905090311 | 51 | 265 | 2.0 | 4.0 | 0.00 | 0.00 | 0.00 | 95 | 1018.0 |
| 20260905085805 | 51 | 99 | 2.0 | 3.0 | 0.00 | 0.00 | 0.00 | 94 | 1017.4 |
| 20260905085306 | 51 | 114 | 1.0 | 6.0 | 0.00 | 0.00 | 0.00 | 94 | 1017.2 |
| 20260905084800 | 51 | 68 | 3.0 | 3.0 | 0.00 | 0.00 | 0.00 | 94 | 1017.7 |
| 20260905084259 | 51 | 173 | 0.0 | 2.0 | 0.00 | 0.00 | 0.00 | 94 | 1018.6 |
| 20260905083755 | 51 | 124 | 0.0 | 2.0 | 0.00 | 0.00 | 0.00 | 94 | 1017.9 |
| 20260905083250 | 50 | 257 | 0.0 | 3.0 | 0.00 | 0.00 | 0.00 | 94 | 1017.9 |
| 20260905082745 | 50 | 108 | 5.0 | 5.0 | 0.00 | 0.00 | 0.00 | 94 | 1017.8 |
| 20260905082242 | 50 | 165 | 0.0 | 2.0 | 0.00 | 0.00 | 0.00 | 94 | 1018.0 |
| 20260905081736 | 50 | 75 | 2.0 | 3.0 | 0.00 | 0.00 | 0.00 | 94 | 1017.7 |
| 20260905081231 | 51 | 90 | 0.0 | 5.0 | 0.00 | 0.00 | 0.00 | 94 | 1018.0 |
| 20260905080731 | 51 | 170 | 2.0 | 3.0 | 0.00 | 0.00 | 0.00 | 94 | 1018.1 |
| 20260905080231 | 51 | 248 | 3.0 | 3.0 | 0.00 | 0.00 | 0.00 | 93 | 1017.7 |
| 20260905075730 | 51 | 31 | 3.0 | 3.0 | 0.00 | 0.00 | 0.00 | 92 | 1017.6 |
| 20260905075229 | 51 | 100 | 2.0 | 5.0 | 0.00 | 0.00 | 0.00 | 92 | 1018.2 |
| 20260905074728 | 51 | 105 | 5.0 | 7.0 | 0.00 | 0.00 | 0.00 | 92 | 1017.9 |
| 20260905074224 | 51 | 120 | 3.0 | 7.0 | 0.00 | 0.00 | 0.00 | 93 | 1017.7 |
| 20260905073719 | 51 | 90 | 1.0 | 2.0 | 0.00 | 0.00 | 0.00 | 93 | 1017.6 |
| 20260905073215 | 51 | 129 | 3.0 | 6.0 | 0.00 | 0.00 | 0.00 | 94 | 1017.7 |
| 20260905072714 | 51 | 126 | 0.0 | 3.0 | 0.00 | 0.00 | 0.00 | 94 | 1017.4 |
| 20260905072210 | 51 | 123 | 0.0 | 1.0 | 0.00 | 0.00 | 0.00 | 93 | 1017.7 |
| 20260905071706 | 51 | 98 | 0.0 | 1.0 | 0.00 | 0.00 | 0.00 | 93 | 1017.8 |
| 20260905071202 | 51 | 103 | 3.0 | 4.0 | 0.00 | 0.00 | 0.00 | 93 | 1017.6 |
| 20260905070656 | 51 | 110 | 4.0 | 6.0 | 0.00 | 0.00 | 0.00 | 93 | 1017.5 |
| 20260905070153 | 51 | 98 | 3.0 | 4.0 | 0.00 | 0.00 | 0.00 | 93 | 1017.7 |
| 20260905065651 | 50 | 99 | 3.0 | 3.0 | 0.00 | 0.00 | 0.00 | 93 | 1017.8 |
| 20260905065145 | 51 | 114 | 0.0 | 2.0 | 0.00 | 0.00 | 0.00 | 93 | 1017.5 |
| 20260905064641 | 51 | 103 | 2.0 | 5.0 | 0.00 | 0.00 | 0.00 | 94 | 1017.9 |
| 20260905064137 | 51 | 85 | 2.0 | 3.0 | 0.00 | 0.00 | 0.00 | 94 | 1017.9 |
| 20260905063635 | 51 | 106 | 1.0 | 2.0 | 0.00 | 0.00 | 0.00 | 93 | 1017.9 |
| 20260905063132 | 51 | 135 | 0.0 | 2.0 | 0.00 | 0.00 | 0.00 | 93 | 1017.8 |
| 20260905062627 | 51 | 176 | 0.0 | 3.0 | 0.00 | 0.00 | 0.00 | 92 | 1017.8 |
| 20260905062126 | 51 | 285 | 0.0 | 2.0 | 0.00 | 0.00 | 0.00 | 92 | 1017.7 |
| 20260905061620 | 50 | 252 | 2.0 | 4.0 | 0.00 | 0.00 | 0.00 | 92 | 1017.9 |
| 20260905061115 | 50 | 131 | 3.0 | 9.0 | 0.00 | 0.00 | 0.00 | 92 | 1017.7 |
| 20260905060610 | 51 | 102 | 5.0 | 8.0 | 0.00 | 0.00 | 0.00 | 92 | 1017.6 |
| 20260905060107 | 51 | 122 | 5.0 | 7.0 | 0.00 | 0.00 | 0.00 | 91 | 1017.2 |
| 20260905055605 | 51 | 81 | 6.0 | 9.0 | 0.00 | 0.20 | 0.20 | 91 | 1017.6 |
| 20260905055100 | 51 | 105 | 4.0 | 9.0 | 0.00 | 0.20 | 0.20 | 92 | 1017.5 |
| 20260905054556 | 50 | 97 | 5.0 | 10.0 | 0.00 | 0.20 | 0.20 | 93 | 1017.4 |
| 20260905054051 | 50 | 76 | 6.0 | 9.0 | 0.00 | 0.20 | 0.20 | 93 | 1017.5 |
| 20260905053550 | 50 | 119 | 2.0 | 7.0 | 0.00 | 0.20 | 0.20 | 93 | 1017.4 |
| 20260905053046 | 50 | 92 | 6.0 | 7.0 | 0.00 | 0.20 | 0.20 | 93 | 1017.6 |
| 20260905052545 | 50 | 103 | 7.0 | 8.0 | 0.00 | 0.20 | 0.20 | 92 | 1017.5 |
| 20260905052040 | 50 | 113 | 4.0 | 8.0 | 0.00 | 0.20 | 0.20 | 93 | 1017.5 |
| 20260905051536 | 50 | 100 | 4.0 | 7.0 | 0.00 | 0.20 | 0.20 | 93 | 1017.1 |
| 20260905051032 | 50 | 96 | 5.0 | 8.0 | 0.00 | 0.20 | 0.20 | 92 | 1017.5 |
| 20260905050528 | 51 | 110 | 6.0 | 10.0 | 0.00 | 0.20 | 0.20 | 92 | 1017.7 |
| 20260905050025 | 51 | 93 | 3.0 | 7.0 | 0.00 | 0.20 | 0.20 | 92 | 1017.9 |
| 20260905045519 | 51 | 98 | 2.0 | 8.0 | 0.00 | 0.20 | 0.20 | 91 | 1017.8 |
| 20260905045015 | 51 | 107 | 4.0 | 6.0 | 0.00 | 0.20 | 0.20 | 91 | 1017.8 |
| 20260905044515 | 51 | 111 | 5.0 | 8.0 | 0.00 | 0.20 | 0.20 | 91 | 1017.7 |
| 20260905044015 | 51 | 112 | 2.0 | 5.0 | 0.00 | 0.20 | 0.20 | 91 | 1017.9 |
| 20260905043513 | 51 | 117 | 3.0 | 9.0 | 0.00 | 0.20 | 0.20 | 91 | 1017.7 |
| 20260905043004 | 51 | 103 | 3.0 | 8.0 | 0.00 | 0.20 | 0.20 | 91 | 1017.7 |
| 20260905042502 | 51 | 83 | 3.0 | 4.0 | 0.00 | 0.20 | 0.20 | 92 | 1017.7 |
| 20260905041958 | 52 | 90 | 2.0 | 3.0 | 0.00 | 0.20 | 0.20 | 91 | 1017.7 |
| 20260905041454 | 52 | 172 | 0.0 | 2.0 | 0.00 | 0.20 | 0.20 | 90 | 1017.5 |
| 20260905040949 | 52 | 105 | 1.0 | 2.0 | 0.00 | 0.20 | 0.20 | 87 | 1017.4 |
| 20260905040448 | 52 | 270 | 0.0 | 2.0 | 0.00 | 0.20 | 0.20 | 87 | 1017.2 |
| 20260905035947 | 52 | 152 | 0.0 | 6.0 | 0.00 | 0.20 | 0.20 | 88 | 1017.2 |
| 20260905035442 | 52 | 103 | 4.0 | 9.0 | 0.00 | 0.20 | 0.20 | 88 | 1017.4 |
| 20260905034940 | 52 | 102 | 4.0 | 13.0 | 0.00 | 0.20 | 0.20 | 90 | 1017.5 |
| 20260905034435 | 52 | 180 | 0.0 | 3.0 | 0.00 | 0.20 | 0.20 | 91 | 1017.5 |
| 20260905033933 | 52 | 41 | 2.0 | 3.0 | 0.00 | 0.20 | 0.20 | 91 | 1017.8 |
| 20260905033428 | 52 | 142 | 0.0 | 3.0 | 0.00 | 0.20 | 0.20 | 92 | 1018.0 |
| 20260905032928 | 52 | 131 | 5.0 | 6.0 | 0.00 | 0.20 | 0.20 | 92 | 1017.7 |
| 20260905032424 | 52 | 131 | 5.0 | 10.0 | 0.00 | 0.20 | 0.20 | 93 | 1017.6 |
| 20260905031919 | 52 | 118 | 7.0 | 13.0 | 0.00 | 0.20 | 0.20 | 92 | 1017.7 |
| 20260905031415 | 52 | 118 | 6.0 | 10.0 | 0.00 | 0.20 | 0.20 | 92 | 1017.7 |
| 20260905030909 | 52 | 116 | 9.0 | 12.0 | 0.00 | 0.20 | 0.20 | 93 | 1017.7 |
| 20260905030400 | 52 | 113 | 7.0 | 13.0 | 0.00 | 0.20 | 0.20 | 93 | 1017.6 |
| 20260905025858 | 52 | 110 | 6.0 | 9.0 | 0.00 | 0.20 | 0.20 | 93 | 1017.7 |
| 20260905025354 | 52 | 115 | 10.0 | 12.0 | 0.00 | 0.20 | 0.20 | 94 | 1018.1 |
| 20260905024850 | 52 | 111 | 7.0 | 10.0 | 0.00 | 0.20 | 0.20 | 94 | 1018.0 |
| 20260905024350 | 52 | 115 | 8.0 | 12.0 | 0.02 | 0.20 | 0.20 | 94 | 1018.2 |
| 20260905023846 | 52 | 126 | 5.0 | 10.0 | 0.02 | 0.20 | 0.20 | 93 | 1018.0 |
| 20260905023341 | 52 | 114 | 7.0 | 13.0 | 0.02 | 0.20 | 0.20 | 93 | 1018.0 |
| 20260905022839 | 53 | 127 | 4.0 | 12.0 | 0.05 | 0.20 | 0.20 | 92 | 1017.9 |
| 20260905022336 | 53 | 127 | 8.0 | 12.0 | 0.02 | 0.20 | 0.20 | 91 | 1017.8 |
| 20260905021830 | 53 | 103 | 6.0 | 12.0 | 0.02 | 0.19 | 0.19 | 91 | 1017.8 |
| 20260905021325 | 53 | 125 | 5.0 | 7.0 | 0.02 | 0.19 | 0.19 | 92 | 1017.8 |
| 20260905020820 | 53 | 128 | 4.0 | 8.0 | 0.00 | 0.19 | 0.19 | 91 | 1017.9 |
| 20260905020315 | 53 | 122 | 5.0 | 10.0 | 0.00 | 0.19 | 0.19 | 91 | 1017.6 |
| 20260905015814 | 54 | 109 | 4.0 | 4.0 | 0.00 | 0.19 | 0.19 | 91 | 1017.8 |
| 20260905015314 | 54 | 82 | 0.0 | 1.0 | 0.00 | 0.19 | 0.19 | 90 | 1017.7 |
| 20260905014813 | 54 | 116 | 4.0 | 5.0 | 0.00 | 0.19 | 0.19 | 90 | 1017.2 |
| 20260905014309 | 54 | 112 | 5.0 | 5.0 | 0.00 | 0.19 | 0.19 | 92 | 1017.2 |
| 20260905013804 | 54 | 95 | 2.0 | 2.0 | 0.00 | 0.19 | 0.19 | 91 | 1017.1 |
| 20260905013300 | 54 | 90 | 1.0 | 1.0 | 0.00 | 0.19 | 0.19 | 91 | 1017.0 |
| 20260905012755 | 54 | 99 | 0.0 | 1.0 | 0.02 | 0.19 | 0.19 | 90 | 1016.8 |
| 20260905012251 | 54 | 99 | 0.0 | 2.0 | 0.07 | 0.19 | 0.19 | 89 | 1016.6 |
| 20260905011747 | 55 | 124 | 2.0 | 3.0 | 0.17 | 0.18 | 0.18 | 86 | 1016.5 |
| 20260905011243 | 56 | 61 | 4.0 | 4.0 | 0.19 | 0.18 | 0.18 | 82 | 1016.5 |
| 20260905010737 | 57 | 315 | 2.0 | 6.0 | 0.17 | 0.16 | 0.16 | 79 | 1017.1 |
| 20260905010232 | 59 | 246 | 10.0 | 11.0 | 0.14 | 0.14 | 0.14 | 72 | 1017.5 |
| 20260905005729 | 61 | 260 | 7.0 | 9.0 | 0.05 | 0.13 | 0.13 | 62 | 1016.9 |
| 20260905005225 | 62 | 256 | 5.0 | 10.0 | 0.00 | 0.12 | 0.12 | 56 | 1016.1 |
| 20260905004719 | 62 | 250 | 4.0 | 7.0 | 0.00 | 0.12 | 0.12 | 55 | 1015.7 |
| 20260905004214 | 62 | 323 | 5.0 | 6.0 | 0.00 | 0.12 | 0.12 | 53 | 1015.4 |
| 20260905003714 | 62 | 292 | 3.0 | 6.0 | 0.00 | 0.12 | 0.12 | 54 | 1015.0 |
| 20260905003210 | 63 | 266 | 3.0 | 7.0 | 0.00 | 0.12 | 0.12 | 53 | 1014.9 |
| 20260905002706 | 63 | 291 | 0.0 | 6.0 | 0.00 | 0.12 | 0.12 | 53 | 1014.9 |
| 20260905002205 | 63 | 315 | 3.0 | 6.0 | 0.00 | 0.12 | 0.12 | 52 | 1015.0 |
| 20260905001701 | 63 | 294 | 0.0 | 6.0 | 0.00 | 0.12 | 0.12 | 54 | 1015.4 |
| 20260905001200 | 63 | 287 | 3.0 | 8.0 | 0.00 | 0.12 | 0.12 | 53 | 1015.0 |
| 20260905000655 | 63 | 253 | 4.0 | 7.0 | 0.00 | 0.12 | 0.12 | 53 | 1014.9 |
| 20260905000151 | 63 | 296 | 3.0 | 9.0 | 0.00 | 0.12 | 0.12 | 53 | 1014.9 |
| 20260904235651 | 63 | 263 | 5.0 | 11.0 | 0.00 | 0.12 | 0.12 | 52 | 1014.9 |
| 20260904235150 | 63 | 268 | 9.0 | 14.0 | 0.00 | 0.12 | 0.12 | 52 | 1014.8 |
| 20260904234646 | 64 | 323 | 2.0 | 10.0 | 0.00 | 0.12 | 0.12 | 52 | 1014.9 |
| 20260904234141 | 64 | 275 | 2.0 | 8.0 | 0.00 | 0.12 | 0.12 | 50 | 1015.1 |
| 20260904233637 | 64 | 303 | 3.0 | 8.0 | 0.00 | 0.12 | 0.12 | 51 | 1014.8 |
| 20260904233133 | 64 | 282 | 5.0 | 12.0 | 0.00 | 0.12 | 0.12 | 50 | 1014.6 |
| 20260904232629 | 65 | 281 | 4.0 | 9.0 | 0.00 | 0.12 | 0.12 | 50 | 1014.9 |
| 20260904232125 | 65 | 347 | 3.0 | 6.0 | 0.00 | 0.12 | 0.12 | 48 | 1014.6 |
| 20260904231620 | 66 | 334 | 3.0 | 7.0 | 0.00 | 0.12 | 0.12 | 47 | 1014.6 |
| 20260904231115 | 68 | 257 | 2.0 | 4.0 | 0.00 | 0.12 | 0.12 | 48 | 1014.5 |
| 20260904230614 | 67 | 254 | 3.0 | 11.0 | 0.00 | 0.12 | 0.12 | 47 | 1014.6 |
| 20260904230110 | 67 | 261 | 4.0 | 9.0 | 0.00 | 0.12 | 0.12 | 48 | 1014.6 |
| 20260904225607 | 67 | 275 | 0.0 | 7.0 | 0.00 | 0.12 | 0.12 | 48 | 1014.6 |
| 20260904225103 | 66 | 270 | 0.0 | 10.0 | 0.00 | 0.12 | 0.12 | 49 | 1014.6 |
| 20260904224557 | 66 | 274 | 5.0 | 6.0 | 0.00 | 0.12 | 0.12 | 50 | 1014.8 |
| 20260904224052 | 65 | 280 | 5.0 | 6.0 | 0.00 | 0.12 | 0.12 | 50 | 1014.5 |
| 20260904223551 | 65 | 20 | 3.0 | 4.0 | 0.00 | 0.12 | 0.12 | 50 | 1015.1 |
| 20260904223047 | 66 | 262 | 5.0 | 6.0 | 0.00 | 0.12 | 0.12 | 49 | 1014.9 |
| 20260904222543 | 65 | 291 | 5.0 | 8.0 | 0.00 | 0.12 | 0.12 | 51 | 1014.6 |
| 20260904222038 | 64 | 278 | 4.0 | 11.0 | 0.00 | 0.12 | 0.12 | 52 | 1014.8 |
| 20260904221532 | 64 | 270 | 3.0 | 10.0 | 0.00 | 0.12 | 0.12 | 52 | 1014.7 |
| 20260904221027 | 64 | 301 | 4.0 | 12.0 | 0.00 | 0.12 | 0.12 | 53 | 1014.7 |
| 20260904220526 | 65 | 298 | 6.0 | 11.0 | 0.00 | 0.12 | 0.12 | 51 | 1014.5 |
| 20260904220023 | 65 | 328 | 2.0 | 4.0 | 0.00 | 0.12 | 0.12 | 50 | 1014.1 |
| 20260904215522 | 65 | 227 | 3.0 | 10.0 | 0.00 | 0.12 | 0.12 | 51 | 1014.6 |
| 20260904215018 | 65 | 279 | 4.0 | 13.0 | 0.00 | 0.12 | 0.12 | 51 | 1014.6 |